Regional Weather Roundup
Issued by NWS

Home | Current Version | Previous Version | Text Only | Print | Product List | Glossary On
Versions: 1 2 3 4 5 6 7 8 9 10 11 12 13 14 15 16 17 18 19 20 21 22 23 24 25 26 27 28 29 30 31 32 33 34 35 36 37 38 39 40 41 42 43 44 45 46 47 48 49 50
000
ASUS43 KDTX 292110
RWRMI
MICHIGAN HOURLY REGIONAL WEATHER ROUNDUP
NATIONAL WEATHER SERVICE DETROIT/PONTIAC MI
500 PM EDT WED MAR 29 2017

NOTE: "FAIR" INDICATES FEW OR NO CLOUDS BELOW 12,000 FEET WITH NO
SIGNIFICANT WEATHER AND/OR OBSTRUCTION TO VISIBILITY.

MIZ047>049-052>055-059>063-066>070-074>076-081>083-292200-
SOUTHEAST LOWER MICHIGAN

CITY           SKY/WX    TMP DP  RH WIND       PRES   REMARKS
ADRIAN         PTSUNNY   53  35  50 E12       30.24F
ALMA           CLOUDY    46  33  61 E15       30.30S
ANN ARBOR      PTSUNNY   54  32  43 E5        30.23S
BAD AXE        CLOUDY    39  32  75 NE12      30.32S WCI  32
CARO           MOSUNNY   46  33  62 NE8       30.30R
DETROIT CITY   PTSUNNY   54  33  45 E13       30.24F
DETROIT        CLOUDY    55  31  39 SE7       30.26S
FLINT          CLOUDY    50  37  61 N13       30.28R
GROSSE ILE     MOSUNNY   48  32  55 S8        30.25S
HILLSDALE      PTSUNNY   54  32  43 E9        30.21F
HOWELL         PTSUNNY   53  27  36 NE6       30.25R

CITY           SKY/WX    TMP DP  RH WIND       PRES   REMARKS
JACKSON        CLOUDY    55  29  36 NE9       30.22F
LAMBERTVILLE   MOSUNNY   52  28  40 E10       30.24F
LANSING        PTSUNNY   52  34  50 NE14      30.25F
LAPEER         FAIR      50  35  57 NE10G17   30.27R
MASON          MOSUNNY   53  36  53 NE7       30.25F
MONROE         CLOUDY    50  32  49 SE8       30.25F
MT. CLEMENS    CLOUDY    54  36  50 S6        30.24S
PONTIAC        CLOUDY    55  30  38 E7        30.23R
PORT HOPE        N/A     37  31  78 N7        30.32F WCI  32
PORT HURON     CLOUDY    43  32  65 NE9       30.28S
TRI CITIES     CLOUDY    40  34  79 NE16      30.33R WCI  31
MIDLAND        FAIR      41  30  65 E13       30.33R
TROY           CLOUDY    57  27  31 N6        30.26S
SAGINAW HB     CLOUDY    41  32  70 N14       30.32R
$$
MIZ043>046-050>051-056>058-064>065-071>073-077>080-292200-
SOUTHWEST LOWER MICHIGAN

CITY           SKY/WX    TMP DP  RH WIND       PRES   REMARKS
BATTLE CREEK   MOSUNNY   54  33  45 E9G21     30.22F
BENTON HARBOR  CLOUDY    55  32  41 E12       30.18F
BIG RAPIDS     CLOUDY    52  21  28 NE5       30.25S
COLDWATER      CLOUDY    54  31  40 E9        30.20F
FREMONT        FAIR      54  26  35 E5        30.23F
HOLLAND        CLOUDY    53  33  46 E12       30.23F
GRAND RAPIDS   CLOUDY    52  36  54 E9        30.24F
IONIA          FAIR      52  32  46 E10       30.24F
KALAMAZOO      CLOUDY    55  29  36 E10       30.21F
LUDINGTON      CLOUDY    47  34  58 N7        30.27S
MARSHALL       CLOUDY    54  32  43 NE5       30.21F
MOUNT PLEASANT CLOUDY    46  33  60 NE9       30.30R
MUSKEGON       CLOUDY    52  34  50 CALM      30.23F
SOUTH HAVEN    CLOUDY    54  31  42 E10       30.19F
$$
MIZ016>042-292200-
NORTHERN LOWER MICHIGAN

CITY           SKY/WX    TMP DP  RH WIND       PRES   REMARKS
ALPENA         CLOUDY    38  26  62 SE7       30.37S WCI  33
BEAVER ISLAND  PTSUNNY   40  21  47 NE6       30.35F
BELLAIRE       PTSUNNY   48  29  47 CALM      30.30F
CADILLAC       CLOUDY    49  24  37 E7        30.25F
CHARLEVOIX     PTSUNNY   39  31  73 N8        30.35S WCI  33
FRANKFORT      PTSUNNY   40  32  72 N9        30.29F WCI  34
GAYLORD        PTSUNNY   46  26  45 VRB5      30.30R
GRAYLING       CLOUDY    46  28  49 E3        30.30S
HARBOR SPRINGS CLOUDY    42  28  58 E10       30.33S
HOUGHTON LAKE  CLOUDY    48  30  49 E9        30.29R
MANISTEE       CLOUDY    44  35  70 N6        30.27F
OSCODA         CLOUDY    37  26  63 NE10      30.35S WCI  30
PELLSTON       CLOUDY    42  24  49 NE10      30.35R
ROGERS CITY    CLOUDY    37  26  66 E7        30.38S WCI  31
TRAVERSE CITY  CLOUDY    42  32  67 N3        30.31S
$$
MIZ007>008-015-292200-
EASTERN UPPER MICHIGAN

CITY           SKY/WX    TMP DP  RH WIND       PRES   REMARKS
KINROSS        PTSUNNY   42  19  39 SE12      30.35S
MACKINAC ISLAN PTSUNNY   37  21  53 SE9       30.36R WCI  30
NEWBERRY       MOSUNNY   40  27  60 SW7       30.34S WCI  35
S. S. MARIE    CLOUDY    44  21  40 S6        30.34F
MUNISING         N/A     33  28  81 N7        30.36S WCI  27
$$
MIZ004>006-011>014-085-292200-
CENTRAL UPPER MICHIGAN

CITY           SKY/WX    TMP DP  RH WIND       PRES   REMARKS
MANISTIQUE     CLOUDY    38  27  64 SE5       30.35F WCI  35
ESCANABA       PTSUNNY   39  28  64 E6        30.34F WCI  35
MENOMINEE      CLOUDY    39  29  67 E7        30.33F WCI  34
SAWYER-GWINN   SUNNY     34  25  69 NE8       30.34F WCI  27
$$
MIZ001>003-009>011-084-292200-
WESTERN UPPER MICHIGAN

CITY           SKY/WX    TMP DP  RH WIND       PRES   REMARKS
IRON MOUNTAIN  CLOUDY    46  25  43 NE6       30.28F
HOUGHTON       PTSUNNY   34  25  69 E12       30.32F WCI  25
COPPER HARBOR    N/A     35  24  64 S6        30.36F WCI  30
IRONWOOD       CLOUDY    49  30  48 E9        30.23F
$$

ABBREVIATIONS USED IN REMARKS
   TC - TEMPERATURE IN CELSIUS
  WCI - WIND CHILL INDEX
   HX - HEAT INDEX
  VSB - VISIBILITY




USA.gov is the U.S. government's official web portal to all federal, state and local government web resources and services.